Weather History for Guatemala Aeropuertola Aurora, Guatemala

Change the Weather History Date:

Sunday, July 7, 2013

  Actual Average Record
Temperature  
Mean Temperature 69 °F -  
Max Temperature 77 °F 74 °F - ()
Min Temperature 61 °F 60 °F - ()
Cooling Degree Days 4    
Growing Degree Days 19 (Base 50)    
Moisture  
Dew Point 59 °F    
Average Humidity 73    
Maximum Humidity 94    
Minimum Humidity 44    
Precipitation  
Precipitation 0.00 in - - ()
Sea Level Pressure  
Sea Level Pressure 30.23 in    
Wind  
Wind Speed 11 mph ()    
Max Wind Speed 16 mph    
Max Gust Speed -    
Visibility 6.2 miles    
Events      
T = Trace of Precipitation, MM = Missing Value Source: Averaged Metar Reports

Daily Weather History Graph

Daily Weather History Graph

Search for Another Location

Airport:

Trip Planner

Search our weather history database for the weather conditions in past years. The results will help you decide how hot, cold, wet, or windy it might be!

Date:

Astronomy

Jul. 07, 2013 Rise Set
Actual Time 5:38 AM CST 6:35 PM CST
Civil Twilight 5:15 AM CST 6:59 PM CST
Nautical Twilight 4:47 AM CST 7:26 PM CST
Astronomical Twilight 4:19 AM CST 7:54 PM CST
Moon 5:05 AM CST (7/7) 6:10 PM CST (7/7)
Length of Visible Light 13h 43m
Length of Day
12h 57m
Waning Crescent, 0% of the Moon is Illuminated
Jul 7
Waning Crescent
Jul 8
New
Jul 15
First Quarter
Jul 22
Full
Jul 29
Last Quarter

Hourly Weather History & Observations

Time (CST) Temp. Dew Point Humidity Pressure Visibility Wind Dir Wind Speed Gust Speed Precip Events Conditions
12:00 AM 64.4 °F 62.6 °F 94% 30.27 in 6.2 mi North 11.5 mph - N/A   Mostly Cloudy
1:00 AM 64.4 °F 62.6 °F 94% 30.24 in 6.2 mi North 9.2 mph - N/A   Mostly Cloudy
2:00 AM 64.4 °F 62.6 °F 94% 30.21 in 6.2 mi North 9.2 mph - N/A   Mostly Cloudy
3:00 AM 64.4 °F 60.8 °F 88% 30.21 in 6.2 mi North 11.5 mph - N/A   Mostly Cloudy
4:00 AM 62.6 °F 60.8 °F 94% 30.21 in 6.2 mi North 13.8 mph - N/A   Mostly Cloudy
5:00 AM 62.6 °F 60.8 °F 94% 30.21 in 6.2 mi North 13.8 mph - N/A   Mostly Cloudy
6:00 AM 63 °F 61 °F 89% 29.93 in 25 mi North 13.8 mph - -   Overcast
6:00 AM 64.4 °F 60.8 °F 88% 30.21 in 6.2 mi North 11.5 mph - N/A   Mostly Cloudy
7:00 AM 64.4 °F 60.8 °F 88% 30.24 in 6.2 mi North 11.5 mph - N/A   Scattered Clouds
8:00 AM 66.2 °F 60.8 °F 83% 30.24 in 6.2 mi North 16.1 mph - N/A   Scattered Clouds
9:00 AM 68.0 °F 60.8 °F 78% 30.27 in 6.2 mi NNE 16.1 mph - N/A   Scattered Clouds
10:00 AM 69.8 °F 59.0 °F 68% 30.27 in 6.2 mi North 16.1 mph - N/A   Scattered Clouds
11:00 AM 73.4 °F 57.2 °F 57% 30.27 in 6.2 mi NNE 16.1 mph - N/A   Scattered Clouds
12:00 PM 75.2 °F 53.6 °F 47% 30.24 in 6.2 mi NNE 16.1 mph - N/A   Partly Cloudy
1:00 PM 77.0 °F 55.4 °F 47% 30.24 in 6.2 mi North 16.1 mph - N/A   Partly Cloudy
2:00 PM 77.0 °F 53.6 °F 44% 30.21 in 6.2 mi North 13.8 mph - N/A   Partly Cloudy
3:00 PM 77.0 °F 55.4 °F 47% 30.21 in 6.2 mi North 13.8 mph - N/A   Partly Cloudy
4:00 PM 77.0 °F 57.2 °F 50% 30.18 in 6.2 mi North 13.8 mph - N/A   Scattered Clouds
5:00 PM 77.0 °F 57.2 °F 50% 30.18 in 6.2 mi North 11.5 mph - N/A   Scattered Clouds
6:00 PM 73.4 °F 59.0 °F 61% 30.21 in 6.2 mi NNE 11.5 mph - N/A   Partly Cloudy
7:00 PM 69.8 °F 59.0 °F 68% 30.24 in 6.2 mi NNE 11.5 mph - N/A   Partly Cloudy
8:00 PM 68.0 °F 57.2 °F 68% 30.27 in - North 6.9 mph - N/A   Clear
9:00 PM 66.2 °F 59.0 °F 78% 30.27 in - North 6.9 mph - N/A   Clear
10:00 PM 66.2 °F 59.0 °F 78% 30.30 in - North 6.9 mph - N/A   Clear
11:00 PM 64.4 °F 60.8 °F 88% 30.30 in 6.2 mi North 9.2 mph - N/A   Mostly Cloudy